Date String (YYYY-MM-DD hh:mm:ss) UTC,Instrument flags,Ambient pressure (hPa),Sample flow (lpm),Bypass flow (lpm),Sample temperature (°C),Ambient temperature (°C),ASC tube jacket temperature (°C),LED temperature (°C),Box temperature (°C),Sample RH (%),Span deviation,Mass concentration (μg/m³),Mass concentration (μg/m³),Mass concentration (μg/m³)
DateTimeUTC,F1_M11,P_M11,Q1_M11,Q2_M11,T1_M11,T2_M11,T3_M11,T4_M11,T5_M11,U1_M11,ZSPAN_M11,X2_M11,X0_M11,X1_M11
2021-10-16 05:00:00,,0833.1,5.00,0.00,27.3,26.3,00.0,36.4,29.0,08.7,0000.0,0002.69,0006.64,0001.91
2021-10-16 05:01:00,,0833.2,5.00,0.00,27.3,26.3,00.0,36.4,29.0,08.5,0000.0,0002.71,0007.27,0001.92
2021-10-16 05:02:00,,0833.1,4.99,0.00,27.2,26.3,00.0,36.3,29.0,08.4,0000.0,0002.69,0007.11,0001.93
2021-10-16 05:03:00,,0833.1,5.01,0.00,27.3,26.3,00.0,36.3,29.0,08.3,0000.0,0002.67,0005.62,0001.95
2021-10-16 05:04:00,,0833.1,5.01,0.00,27.3,26.3,00.0,36.3,29.0,08.2,0000.0,0002.69,0005.78,0001.96
2021-10-16 05:05:00,,0833.1,4.99,0.00,27.2,26.3,00.0,36.3,29.0,08.1,0000.0,0002.67,0005.58,0001.96
2021-10-16 05:06:00,,0833.1,5.00,0.00,27.3,26.3,00.0,36.3,29.0,08.1,0000.0,0002.65,0005.39,0001.97
2021-10-16 05:07:00,,0833.2,5.00,0.00,27.3,26.3,00.0,36.3,29.0,08.1,0000.0,0002.68,0005.48,0001.97
2021-10-16 05:08:00,,0833.2,5.00,0.00,27.2,26.3,00.0,36.3,29.0,08.0,0000.0,0002.66,0005.39,0001.96
2021-10-16 05:09:00,,0833.1,5.00,0.00,27.2,26.3,00.0,36.3,29.0,08.1,0000.0,0002.58,0005.40,0001.95
2021-10-16 05:10:00,,0833.2,4.99,0.00,27.2,26.3,00.0,36.3,29.0,08.1,0000.0,0002.55,0005.51,0001.96
2021-10-16 05:11:00,,0833.1,5.00,0.00,27.2,26.3,00.0,36.3,29.0,08.0,0000.0,0002.57,0005.24,0001.98
2021-10-16 05:12:00,,0833.1,4.99,0.00,27.2,26.3,00.0,36.3,29.0,08.0,0000.0,0002.62,0004.69,0001.97
2021-10-16 05:13:00,,0833.2,4.99,0.00,27.2,26.3,00.0,36.3,29.0,08.0,0000.0,0002.66,0004.82,0001.97
2021-10-16 05:14:00,,0833.2,5.01,0.00,27.3,26.3,00.0,36.3,29.0,08.0,0000.0,0002.72,0004.91,0001.97
2021-10-16 05:15:00,,0833.1,5.00,0.00,27.3,26.3,00.0,36.3,29.0,08.0,0000.0,0002.75,0004.94,0001.96
2021-10-16 05:16:00,,0833.1,4.99,0.00,27.3,26.3,00.0,36.3,29.0,08.0,0000.0,0002.77,0005.07,0001.96
2021-10-16 05:17:00,,0833.1,5.01,0.00,27.2,26.3,00.0,36.3,29.0,08.0,0000.0,0002.78,0005.13,0001.96
2021-10-16 05:18:00,,0833.1,5.00,0.00,27.2,26.3,00.0,36.3,29.0,08.1,0000.0,0002.76,0005.11,0001.96
2021-10-16 05:19:00,,0833.1,5.01,0.00,27.2,26.3,00.0,36.3,29.0,08.1,0000.0,0002.74,0005.06,0001.98
2021-10-16 05:20:00,,0833.1,4.99,0.00,27.3,26.3,00.0,36.3,29.0,08.0,0000.0,0002.78,0005.04,0001.98
2021-10-16 05:21:00,,0833.1,4.99,0.00,27.3,26.3,00.0,36.3,29.0,08.0,0000.0,0002.79,0004.85,0001.96
2021-10-16 05:22:00,,0833.0,5.01,0.00,27.3,26.3,00.0,36.3,29.0,08.0,0000.0,0002.77,0004.69,0001.95
2021-10-16 05:23:00,,0833.1,5.00,0.00,27.2,26.3,00.0,36.3,29.0,08.0,0000.0,0002.72,0004.51,0001.96
2021-10-16 05:24:00,,0833.1,5.01,0.00,27.2,26.3,00.0,36.3,29.0,08.0,0000.0,0002.73,0004.84,0001.95
2021-10-16 05:25:00,,0833.1,5.00,0.00,27.2,26.3,00.0,36.3,29.0,08.0,0000.0,0002.71,0005.20,0001.94
2021-10-16 05:26:00,,0833.0,4.99,0.00,27.2,26.2,00.0,36.3,29.0,08.0,0000.0,0002.70,0005.69,0001.93
2021-10-16 05:27:00,,0833.0,5.00,0.00,27.2,26.2,00.0,36.3,29.0,08.0,0000.0,0002.65,0005.65,0001.93
2021-10-16 05:28:00,,0833.0,5.01,0.00,27.2,26.2,00.0,36.3,29.0,08.0,0000.0,0002.65,0005.68,0001.93
2021-10-16 05:29:00,,0833.1,4.99,0.00,27.2,26.2,00.0,36.3,29.0,08.0,0000.0,0002.63,0005.61,0001.93
2021-10-16 05:30:00,,0833.1,4.99,0.00,27.2,26.2,00.0,36.3,29.0,08.0,0000.0,0002.63,0005.75,0001.91
2021-10-16 05:31:00,,0833.1,5.01,0.00,27.2,26.2,00.0,36.3,29.0,08.1,0000.0,0002.61,0007.63,0001.89
2021-10-16 05:32:00,,0833.1,4.99,0.00,27.2,26.2,00.0,36.3,29.0,08.2,0000.0,0002.61,0008.84,0001.90
2021-10-16 05:33:00,,0833.1,4.99,0.00,27.2,26.2,00.0,36.3,29.0,08.1,0000.0,0002.62,0008.85,0001.89
2021-10-16 05:34:00,,0833.1,5.01,0.00,27.2,26.1,00.0,36.3,28.9,08.4,0000.0,0002.64,0008.89,0001.88
2021-10-16 05:35:00,,0833.0,5.00,0.00,27.1,26.1,00.0,36.3,28.9,08.7,0000.0,0002.63,0008.84,0001.87
2021-10-16 05:36:00,,0833.0,4.99,0.00,27.1,26.1,00.0,36.3,28.9,08.7,0000.0,0002.61,0008.58,0001.87
2021-10-16 05:37:00,,0833.0,5.00,0.00,27.1,26.1,00.0,36.3,28.9,08.8,0000.0,0002.58,0008.30,0001.86
2021-10-16 05:38:00,,0833.0,5.01,0.00,27.1,26.1,00.0,36.3,28.8,08.6,0000.0,0002.57,0008.17,0001.86
2021-10-16 05:39:00,,0833.1,5.01,0.00,27.1,26.1,00.0,36.3,28.8,08.5,0000.0,0002.66,0008.89,0001.86
2021-10-16 05:40:00,,0833.1,4.99,0.00,27.1,26.1,00.0,36.2,28.8,08.5,0000.0,0002.72,0009.55,0001.86
2021-10-16 05:41:00,,0833.1,5.00,0.00,27.1,26.0,00.0,36.2,28.8,08.4,0000.0,0002.69,0009.85,0001.84
2021-10-16 05:42:00,,0833.0,4.99,0.00,27.1,26.0,00.0,36.2,28.8,08.4,0000.0,0002.69,0008.52,0001.84
2021-10-16 05:43:00,,0833.0,4.99,0.00,27.1,26.1,00.0,36.2,28.8,08.3,0000.0,0002.68,0007.45,0001.83
2021-10-16 05:44:00,,0833.0,4.99,0.00,27.0,26.0,00.0,36.2,28.8,08.3,0000.0,0002.65,0007.41,0001.83
2021-10-16 05:45:00,,0833.0,5.01,0.00,27.0,26.0,00.0,36.2,28.8,08.3,0000.0,0002.68,0007.45,0001.83
2021-10-16 05:46:00,,0833.0,4.99,0.00,27.0,26.0,00.0,36.2,28.8,08.3,0000.0,0002.63,0007.31,0001.83
2021-10-16 05:47:00,,0833.1,5.00,0.00,27.0,26.0,00.0,36.2,28.8,08.3,0000.0,0002.56,0007.11,0001.82
2021-10-16 05:48:00,,0833.0,5.01,0.00,27.0,26.0,00.0,36.2,28.8,08.7,0000.0,0002.57,0007.34,0001.82
2021-10-16 05:49:00,,0833.1,5.00,0.00,27.0,26.0,00.0,36.1,28.7,08.5,0000.0,0002.62,0008.64,0001.83
2021-10-16 05:50:00,,0833.0,4.99,0.00,27.0,26.0,00.0,36.1,28.7,08.5,0000.0,0002.57,0008.32,0001.83
2021-10-16 05:51:00,,0833.1,5.00,0.00,27.0,25.9,00.0,36.1,28.7,08.4,0000.0,0002.51,0007.48,0001.81
2021-10-16 05:52:00,,0833.0,4.99,0.00,26.9,25.9,00.0,36.1,28.7,08.5,0000.0,0002.50,0007.08,0001.82
2021-10-16 05:53:00,,0833.1,4.99,0.00,26.9,26.0,00.0,36.1,28.7,08.8,0000.0,0002.54,0007.95,0001.83
2021-10-16 05:54:00,,0833.1,5.02,0.00,27.0,26.0,00.0,36.1,28.7,08.9,0000.0,0002.60,0008.17,0001.84
2021-10-16 05:55:00,,0833.0,4.99,0.00,27.0,26.0,00.0,36.1,28.7,08.9,0000.0,0002.63,0008.64,0001.85
2021-10-16 05:56:00,,0833.0,5.00,0.00,27.0,26.0,00.0,36.1,28.7,09.1,0000.0,0002.68,0008.73,0001.86
2021-10-16 05:57:00,,0832.9,5.01,0.00,27.0,26.0,00.0,36.1,28.7,09.1,0000.0,0002.69,0008.82,0001.87
2021-10-16 05:58:00,,0832.8,5.00,0.00,27.0,26.0,00.0,36.1,28.7,09.0,0000.0,0002.74,0008.92,0001.89
2021-10-16 05:59:00,,0832.8,4.99,0.00,27.0,26.0,00.0,36.1,28.7,09.0,0000.0,0002.76,0008.83,0001.90
